Weather History for Laconia, NH

Change the Weather History Date:

Friday, February 7, 2014

  Actual Average Record
Temperature  
Mean Temperature 12 °F -  
Max Temperature 26 °F 28 °F 48 °F (2005)
Min Temperature -2 °F 7 °F -16 °F (1993)
Degree Days  
Heating Degree Days 53    
Moisture  
Dew Point 2 °F    
Average Humidity 64    
Maximum Humidity 100    
Minimum Humidity 40    
Precipitation  
Precipitation 0.00 in - - ()
Sea Level Pressure  
Sea Level Pressure 30.11 in    
Wind  
Wind Speed 7 mph (WSW)    
Max Wind Speed 16 mph    
Max Gust Speed 21 mph    
Visibility 10 miles    
Events      
Averages and records for this station are not official NWS values.
T = Trace of Precipitation, MM = Missing Value Source: NWS Daily Summary

Daily Weather History Graph

Daily Weather History Graph

Search for Another Location

Airport:

Trip Planner

Search our weather history database for the weather conditions in past years. The results will help you decide how hot, cold, wet, or windy it might be!

Date:

Astronomy

Feb. 07, 2014 Rise Set
Actual Time 6:54 AM EST 5:05 PM EST
Civil Twilight 6:25 AM EST 5:35 PM EST
Nautical Twilight 5:51 AM EST 6:09 PM EST
Astronomical Twilight 5:17 AM EST 6:42 PM EST
Moon 11:12 AM EST (2/7) 1:09 AM EST (2/7)
Length of Visible Light 11h 10m
Length of Day
10h 10m
First Quarter, 59% of the Moon is Illuminated
Feb 7
First Quarter
Feb 14
Full
Feb 22
Last Quarter
Mar 1
New
Mar 8
First Quarter

Hourly Weather History & Observations

Time (EST) Temp. Windchill Dew Point Humidity Pressure Visibility Wind Dir Wind Speed Gust Speed Precip Events Conditions
12:15 AM 3.2 °F -4.2 °F 1.4 °F 92% 30.12 in 10.0 mi SW 3.5 mph - N/A   Clear
12:35 AM 3.2 °F -4.2 °F 1.4 °F 92% 30.12 in 10.0 mi West 3.5 mph - N/A   Clear
12:55 AM 1.4 °F -11.3 °F -0.4 °F 92% 30.12 in 10.0 mi WSW 6.9 mph - N/A   Clear
1:15 AM 5.0 °F -4.1 °F 1.4 °F 85% 30.12 in 10.0 mi West 4.6 mph - N/A   Clear
1:35 AM 3.2 °F -9.1 °F -2.2 °F 78% 30.12 in 10.0 mi WSW 6.9 mph - N/A   Clear
1:55 AM 3.2 °F -7.8 °F 1.4 °F 92% 30.11 in 10.0 mi WSW 5.8 mph - N/A   Clear
2:15 AM 3.2 °F -6.2 °F -0.4 °F 85% 30.11 in 10.0 mi West 4.6 mph - N/A   Clear
2:35 AM 1.4 °F -6.2 °F -7.6 °F 66% 30.11 in 10.0 mi East 3.5 mph - N/A   Clear
2:55 AM 1.4 °F - 1.4 °F 100% 30.12 in 10.0 mi Calm Calm - N/A   Clear
3:15 AM -0.4 °F - -2.2 °F 92% 30.11 in 10.0 mi Calm Calm - N/A   Clear
3:35 AM -0.4 °F -10.4 °F -4.0 °F 85% 30.11 in 10.0 mi WSW 4.6 mph - N/A   Clear
3:55 AM -0.4 °F -10.4 °F -4.0 °F 85% 30.10 in 10.0 mi WSW 4.6 mph - N/A   Clear
4:15 AM 1.4 °F -8.3 °F -4.0 °F 78% 30.11 in 10.0 mi WSW 4.6 mph - N/A   Clear
4:35 AM 1.4 °F -6.2 °F -2.2 °F 85% 30.11 in 10.0 mi West 3.5 mph - N/A   Clear
4:55 AM -2.2 °F -14.2 °F -5.8 °F 85% 30.11 in 10.0 mi WSW 5.8 mph - N/A   Clear
5:15 AM -0.4 °F -10.4 °F -4.0 °F 85% 30.11 in 10.0 mi WSW 4.6 mph - N/A   Clear
5:35 AM -0.4 °F -12.0 °F -4.0 °F 85% 30.12 in 10.0 mi WSW 5.8 mph - N/A   Clear
5:55 AM -2.2 °F -12.5 °F -5.8 °F 85% 30.11 in 10.0 mi WSW 4.6 mph - N/A   Clear
6:15 AM -2.2 °F -14.2 °F -5.8 °F 85% 30.12 in 10.0 mi WSW 5.8 mph - N/A   Clear
6:35 AM -0.4 °F -12.0 °F -4.0 °F 85% 30.13 in 10.0 mi WSW 5.8 mph - N/A   Clear
6:55 AM -2.2 °F -12.5 °F -5.8 °F 85% 30.12 in 10.0 mi WSW 4.6 mph - N/A   Clear
7:15 AM -2.2 °F -10.4 °F -7.6 °F 78% 30.13 in 10.0 mi WSW 3.5 mph - N/A   Clear
7:35 AM -0.4 °F -12.0 °F -4.0 °F 85% 30.14 in 10.0 mi WSW 5.8 mph - N/A   Clear
7:55 AM -2.2 °F -14.2 °F -7.6 °F 78% 30.15 in 9.0 mi WSW 5.8 mph - N/A   Clear
8:15 AM 1.4 °F -8.3 °F -2.2 °F 85% 30.14 in 10.0 mi WSW 4.6 mph - N/A   Clear
8:35 AM 1.4 °F -8.3 °F -0.4 °F 92% 30.14 in 9.0 mi WSW 4.6 mph - N/A   Clear
8:55 AM 3.2 °F -6.2 °F 1.4 °F 92% 30.15 in 9.0 mi WSW 4.6 mph - N/A   Clear
9:15 AM 5.0 °F - -0.4 °F 78% 30.15 in 10.0 mi Calm Calm - N/A   Clear
9:35 AM 12.2 °F -1.0 °F 5.0 °F 73% 30.14 in 10.0 mi SW 10.4 mph - N/A   Clear
9:55 AM 17.6 °F 3.7 °F 8.6 °F 68% 30.15 in 10.0 mi SW 13.8 mph - N/A   Clear
10:15 AM 17.6 °F 2.7 °F 8.6 °F 68% 30.15 in 10.0 mi SW 16.1 mph - N/A   Clear
10:35 AM 19.4 °F 6.6 °F 8.6 °F 63% 30.15 in 10.0 mi WSW 12.7 mph 17.3 mph N/A   Clear
10:55 AM 19.4 °F 7.2 °F 8.6 °F 63% 30.15 in 10.0 mi SW 11.5 mph - N/A   Partly Cloudy
11:15 AM 21.2 °F 7.3 °F 6.8 °F 54% 30.15 in 10.0 mi WSW 16.1 mph 20.7 mph N/A   Mostly Cloudy
11:35 AM 21.2 °F 10.1 °F 5.0 °F 50% 30.14 in 10.0 mi WSW 10.4 mph 17.3 mph N/A   Partly Cloudy
11:55 AM 21.2 °F 9.5 °F 6.8 °F 54% 30.13 in 10.0 mi West 11.5 mph 18.4 mph N/A   Partly Cloudy
12:15 PM 23.0 °F 11.7 °F 6.8 °F 50% 30.12 in 10.0 mi West 11.5 mph 17.3 mph N/A   Clear
12:35 PM 24.8 °F 15.3 °F 6.8 °F 46% 30.11 in 10.0 mi WNW 9.2 mph - N/A   Partly Cloudy
12:55 PM 24.8 °F 15.3 °F 6.8 °F 46% 30.10 in 10.0 mi West 9.2 mph - N/A   Clear
1:15 PM 24.8 °F 14.0 °F 6.8 °F 46% 30.09 in 10.0 mi West 11.5 mph - N/A   Clear
1:35 PM 24.8 °F 16.1 °F 6.8 °F 46% 30.09 in 10.0 mi WSW 8.1 mph - N/A   Clear
1:55 PM 26.6 °F 16.8 °F 6.8 °F 43% 30.08 in 10.0 mi West 10.4 mph 16.1 mph N/A   Clear
2:15 PM 26.6 °F 17.5 °F 5.0 °F 40% 30.08 in 10.0 mi WNW 9.2 mph - N/A   Clear
2:35 PM 26.6 °F 19.1 °F 6.8 °F 43% 30.08 in 10.0 mi West 6.9 mph 16.1 mph N/A   Clear
2:55 PM 26.6 °F 15.7 °F 6.8 °F 43% 30.07 in 10.0 mi West 12.7 mph 16.1 mph N/A   Clear
3:15 PM 24.8 °F 12.9 °F 6.8 °F 46% 30.07 in 10.0 mi WSW 13.8 mph 19.6 mph N/A   Clear
3:35 PM 26.6 °F 17.5 °F 5.0 °F 40% 30.07 in 10.0 mi WSW 9.2 mph - N/A   Clear
3:55 PM 24.8 °F 15.3 °F 6.8 °F 46% 30.07 in 10.0 mi WSW 9.2 mph - N/A   Clear
4:15 PM 24.8 °F 16.1 °F 5.0 °F 43% 30.08 in 10.0 mi WSW 8.1 mph - N/A   Clear
4:35 PM 24.8 °F 13.4 °F 5.0 °F 43% 30.08 in 10.0 mi West 12.7 mph - N/A   Clear
4:55 PM 24.8 °F 16.9 °F 5.0 °F 43% 30.09 in 10.0 mi WSW 6.9 mph - N/A   Clear
5:15 PM 24.8 °F 16.9 °F 3.2 °F 40% 30.09 in 10.0 mi West 6.9 mph - N/A   Clear
5:35 PM 23.0 °F 15.8 °F 3.2 °F 43% 30.10 in 10.0 mi West 5.8 mph - N/A   Clear
5:55 PM 21.2 °F 11.7 °F 3.2 °F 46% 30.10 in 10.0 mi West 8.1 mph - N/A   Clear
6:15 PM 21.2 °F 10.1 °F 5.0 °F 50% 30.11 in 10.0 mi West 10.4 mph - N/A   Clear
6:35 PM 23.0 °F 12.4 °F 6.8 °F 50% 30.11 in 10.0 mi West 10.4 mph - N/A   Partly Cloudy
6:55 PM 23.0 °F 12.4 °F 6.8 °F 50% 30.11 in 10.0 mi West 10.4 mph - N/A   Clear
7:15 PM 21.2 °F 10.9 °F 6.8 °F 54% 30.11 in 10.0 mi West 9.2 mph - N/A   Clear
7:35 PM 21.2 °F 10.1 °F 6.8 °F 54% 30.12 in 10.0 mi West 10.4 mph - N/A   Clear
7:55 PM 21.2 °F 11.7 °F 6.8 °F 54% 30.11 in 10.0 mi West 8.1 mph - N/A   Clear
8:15 PM 21.2 °F 9.5 °F 6.8 °F 54% 30.11 in 10.0 mi WSW 11.5 mph - N/A   Clear
8:35 PM 21.2 °F 7.8 °F 6.8 °F 54% 30.11 in 10.0 mi WSW 15.0 mph 19.6 mph N/A   Clear
8:55 PM 21.2 °F 9.5 °F 5.0 °F 50% 30.12 in 10.0 mi WSW 11.5 mph - N/A   Clear
9:15 PM 21.2 °F 8.9 °F 3.2 °F 46% 30.12 in 10.0 mi SW 12.7 mph 16.1 mph N/A   Clear
9:35 PM 19.4 °F 9.5 °F 3.2 °F 49% 30.13 in 10.0 mi SW 8.1 mph - N/A   Partly Cloudy
9:55 PM 19.4 °F 6.6 °F 1.4 °F 46% 30.12 in 10.0 mi SW 12.7 mph 17.3 mph N/A   Partly Cloudy
10:15 PM 17.6 °F 5.0 °F 1.4 °F 49% 30.12 in 10.0 mi SW 11.5 mph - N/A   Clear
10:35 PM 17.6 °F 9.3 °F 1.4 °F 49% 30.12 in 10.0 mi SSW 5.8 mph - N/A   Clear
10:55 PM 17.6 °F 5.7 °F 1.4 °F 49% 30.12 in 10.0 mi SW 10.4 mph - N/A   Clear
11:15 PM 15.8 °F 5.1 °F 1.4 °F 53% 30.12 in 10.0 mi SW 8.1 mph - N/A   Clear
11:35 PM 15.8 °F - 1.4 °F 53% 30.13 in 10.0 mi Calm Calm - N/A   Clear
11:55 PM 15.8 °F 6.1 °F 1.4 °F 53% 30.12 in 10.0 mi WSW 6.9 mph - N/A   Clear